Near-Earth-Asteroid Tracking Team (Jet Propulsion Laboratory)
軌道要素
Epoch 2002 July 25.0 TT = JDT 2452480.5
T 2002 July 12.97278 TT MPC
q 2.7645196 (2000.0) P Q
n 0.01342972 Peri. 24.43151 +0.53871210 -0.30596739
a 17.5290374 Node 308.09910 -0.83805508 -0.09914019
e 0.8422891 Incl. 94.06286 +0.08633048 +0.94686598
P 73.39
>From 226 observations 2002 May 27-Sept. 14, mean residual 0".71.